Weather History for KORH - June, 2013

Change the Weather History Date:

Wednesday, June 26, 2013

  Actual Average Record
Temperature  
Mean Temperature 75 °F 68 °F  
Max Temperature 81 °F 77 °F 98 °F (1952)
Min Temperature 68 °F 59 °F 45 °F (1986)
Degree Days  
Heating Degree Days 0 1  
Month to date heating degree days 67 78  
Since 1 June heating degree days 67 78  
Since 1 July heating degree days 6279 6712  
Cooling Degree Days 10 4  
Month to date cooling degree days 79 67  
Year to date cooling degree days 103 89  
Since 1 June cooling degree days 79 67  
Growing Degree Days 24 (Base 50)    
Moisture  
Dew Point 66 °F    
Average Humidity 76    
Maximum Humidity 93    
Minimum Humidity 58    
Precipitation  
Precipitation 0.00 in 0.13 in 1.25 in (1958)
Month to date precipitation 9.51 3.70  
Year to date precipitation 26.32 22.93  
Sea Level Pressure  
Sea Level Pressure 29.82 in    
Wind  
Wind Speed 9 mph (WNW)    
Max Wind Speed 20 mph    
Max Gust Speed 25 mph    
Visibility 10 miles    
Events      
T = Trace of Precipitation, MM = Missing Value Source: NWS Daily Summary

Daily Weather History Graph

Daily Weather History Graph

Search for Another Location

Airport or City:

Trip Planner

Search our weather history database for the weather conditions in past years. The results will help you decide how hot, cold, wet, or windy it might be!

Date:

Astronomy

Jun. 26, 2013 Rise Set
Actual Time 5:12 AM EDT 8:28 PM EDT
Civil Twilight 4:37 AM EDT 9:02 PM EDT
Nautical Twilight 3:53 AM EDT 9:47 PM EDT
Astronomical Twilight 2:58 AM EDT 10:41 PM EDT
Moon 10:44 PM EDT (6/26) 9:05 AM EDT (6/26)
Length of Visible Light 16h 24m
Length of Day
15h 15m
Waning Gibbous, 85% of the Moon is Illuminated
Jun 26
Waning Gibbous
Jun 30
Last Quarter
Jul 8
New
Jul 15
First Quarter
Jul 22
Full

Hourly Weather History & Observations

Time (EDT) Temp. Heat Index Dew Point Humidity Pressure Visibility Wind Dir Wind Speed Gust Speed Precip Events Conditions
12:54 AM 70.0 °F - 66.0 °F 87% 29.78 in 10.0 mi West 9.2 mph - N/A   Clear
1:54 AM 70.0 °F - 66.0 °F 87% 29.76 in 10.0 mi West 11.5 mph - N/A   Clear
2:54 AM 70.0 °F - 64.9 °F 84% 29.76 in 10.0 mi West 10.4 mph - N/A   Clear
3:54 AM 69.1 °F - 66.0 °F 90% 29.77 in 10.0 mi West 9.2 mph - N/A   Clear
4:54 AM 71.1 °F - 64.9 °F 81% 29.77 in 10.0 mi West 11.5 mph - N/A   Partly Cloudy
5:54 AM 71.1 °F - 64.9 °F 81% 29.78 in 10.0 mi West 11.5 mph - N/A   Clear
6:54 AM 72.0 °F - 64.9 °F 78% 29.78 in 10.0 mi West 10.4 mph - N/A   Clear
7:54 AM 73.0 °F - 66.0 °F 79% 29.79 in 10.0 mi West 10.4 mph - N/A   Clear
8:54 AM 77.0 °F - 66.0 °F 69% 29.80 in 10.0 mi WNW 11.5 mph - N/A   Clear
9:54 AM 78.1 °F - 66.0 °F 66% 29.80 in 10.0 mi WSW 9.2 mph - N/A   Mostly Cloudy
10:01 AM 78.1 °F - 66.0 °F 66% 29.81 in 10.0 mi West 10.4 mph - N/A   Partly Cloudy
10:08 AM 78.1 °F - 64.9 °F 64% 29.81 in 10.0 mi West 10.4 mph - N/A   Mostly Cloudy
10:22 AM 78.1 °F - 64.9 °F 64% 29.82 in 10.0 mi WNW 10.4 mph - N/A   Scattered Clouds
10:54 AM 79.0 °F - 64.9 °F 62% 29.81 in 10.0 mi West 13.8 mph - N/A   Mostly Cloudy
11:54 AM 79.0 °F - 66.0 °F 64% 29.81 in 10.0 mi West 12.7 mph - N/A   Scattered Clouds
12:54 PM 80.1 °F 81.9 °F 64.9 °F 60% 29.80 in 10.0 mi West 12.7 mph - N/A   Scattered Clouds
1:54 PM 79.0 °F - 64.0 °F 60% 29.79 in 10.0 mi West 13.8 mph - N/A   Clear
2:54 PM 80.1 °F 82.1 °F 66.0 °F 62% 29.80 in 10.0 mi West 16.1 mph 21.9 mph N/A   Clear
3:54 PM 78.1 °F - 64.9 °F 64% 29.80 in 10.0 mi WNW 13.8 mph 21.9 mph N/A   Partly Cloudy
4:54 PM 75.9 °F - 66.0 °F 71% 29.81 in 10.0 mi West 8.1 mph - N/A   Clear
5:54 PM 75.0 °F - 66.0 °F 73% 29.81 in 10.0 mi West 9.2 mph - N/A   Clear
6:54 PM 75.9 °F - 66.0 °F 71% 29.82 in 10.0 mi West 6.9 mph - N/A   Clear
7:54 PM 73.9 °F - 66.0 °F 76% 29.83 in 10.0 mi WSW 4.6 mph - N/A   Clear
8:54 PM 72.0 °F - 66.0 °F 81% 29.83 in 10.0 mi West 4.6 mph - N/A   Clear
9:50 PM 69.8 °F - 66.2 °F 88% 29.87 in 10.0 mi NNE 5.8 mph - N/A   Mostly Cloudy
9:54 PM 70.0 °F - 66.9 °F 90% 29.86 in 10.0 mi NNE 4.6 mph - N/A   Mostly Cloudy
10:09 PM 70.0 °F - 66.9 °F 90% 29.87 in 10.0 mi NNE 4.6 mph - N/A   Overcast
10:41 PM 70.0 °F - 66.9 °F 90% 29.87 in 10.0 mi NNE 4.6 mph - N/A   Overcast
10:49 PM 69.8 °F - 66.2 °F 88% 29.88 in 10.0 mi NE 4.6 mph - N/A   Overcast
10:54 PM 70.0 °F - 66.9 °F 90% 29.86 in 10.0 mi NE 5.8 mph - N/A   Overcast
11:20 PM 69.1 °F - 66.0 °F 90% 29.88 in 10.0 mi ENE 4.6 mph - N/A   Scattered Clouds
11:31 PM 68.0 °F - 66.0 °F 93% 29.88 in 10.0 mi ENE 5.8 mph - N/A   Mostly Cloudy
11:41 PM 68.0 °F - 66.0 °F 93% 29.88 in 10.0 mi ENE 4.6 mph - N/A   Mostly Cloudy
11:51 PM 68.0 °F - 66.2 °F 94% 29.88 in 10.0 mi NE 3.5 mph - N/A   Mostly Cloudy
11:54 PM 68.0 °F - 66.0 °F 93% 29.86 in 10.0 mi Calm Calm - N/A   Mostly Cloudy